DELTA 1 DEB, 29186

Orbit data source: Space-Track

DELTA 1 DEB, 29186 is space debris in LEO originally from a launch on Thu, 11 Jan 1968 UTC launched from the Air Force Western Test Range (AFWTR). Debris objects in space refer to the collection of defunct objects orbiting the Earth. Examples of debris include non-operational satellites, rocket bodies, and fragments generated from explosions, collisions, or faulty payload assembly.

Loading next visibility...
DELTA 1 DEB details
Identifier
29186, 1968-002K
Orbit
LEO
Last TLE update4 days ago
Origin
Flag of USGSFC (US)
ManufacturerUnknown
MissionSpacecraft
Bus & MotorUnknown
MassUnknown
Launch date (UTC)
1968-01-11 (57 years ago)
Launch vehicleUnknown
Launch site
Air Force Western Test Range (AFWTR)
Object type
Payload
Rocket body
Debris
Shape & HBRUnknown
Radar Cross SectionSmall (<0.1 m²)

Expand to show TLE details & history

TLE from 4 days ago
0 DELTA 1 DEB
1 29186U 68002K   24345.11739815  .00000670  00000-0  22152-2 0  9992
2 29186 105.7917 281.3194 0310090 352.8108  19.1263 12.92752290946882
Epoch: 2024-12-10T02:49Z
Definitive object data (Epoch: 2024-12-10T02:49:03.2Z)
Latitude12.6097°
Longitude156.11647°
Altitude1,068.44 km
Speed7.425 km/s
True Right ascension18h 30m 50s
True Declination12° 32' 23"
Sunlit
Object was in daylight at TLE epoch
Visualization TLE readout
Latitude27.66484°
Longitude156.31585°
Altitude1,113.24 km
Speed7.384 km/s
Apparent Right ascension21h 36m 45s
Apparent Declination-6° 14' 44"
Sunlit
Object is in daylight
Visualization observer readout
Local Sidereal Time14:50:12
Azimuth87.341° E
Elevation-12.92°
Doppler factor1
Orbital elements
Apogee altitude1,526.12 km
Perigee altitude1,050.657 km
Semi-major axis7,666.525 km
Eccentricity0.031009
Inclination105.7917°
RAAN281.3194°
Arg. of periapsis352.8108°
True anomaly20.33466°
Mean anomaly19.1263°
Eccentric anomaly19.72597°
Mean motion3.23329 °/min
BSTAR0.0022152
Orbital period111.34 mins
Loading maneuver chart data...
Loading historical data...
Loading historical data...
Loading historical data...
Loading historical data...
Loading historical data...
Loading historical data...
Loading historical data...

DELTA 1 DEB Visibility forecast

Observer location: undefined°, undefined

Span
Click to sort rows by Start time (UTC) header in descending order
Start Az.
Max El. time (UTC)
Max El. Az.
Max El.
End time (UTC)
End Az.
10 mins2024-12-13 18:12:18.634Z101.773° ESE2024-12-13 18:17:18.634Z48.424° ENE24.654°2024-12-13 18:22:18.634Z0.072° NNE
12 mins2024-12-13 20:00:18.634Z173.356° S2024-12-13 20:05:18.634Z242.369° WSW41.327°2024-12-13 20:12:18.634Z330.687° NNW
10 mins2024-12-14 07:42:18.634Z62.131° ENE2024-12-14 07:46:18.634Z95.243° ESE20.542°2024-12-14 07:52:18.634Z142.571° SSE
15 mins2024-12-14 09:29:18.634Z21.132° NNE2024-12-14 09:36:18.634Z259.827° W44.824°2024-12-14 09:44:18.634Z208.091° SW
10 mins2024-12-14 11:19:18.634Z351.437° N2024-12-14 11:24:18.634Z308.087° NW21.233°2024-12-14 11:29:18.634Z269.531° W
|